SCP
0 0 0 0 0 0 0 0 0 0 0 0 0 0 0 0 0 0 0 0 1 1 0 0 0 0 0 0 0 0 0 0 0 0 0 0 0 0 0 0 0 0 0
1 1 1 0 0 0 0 0 0 0 0 0 0 0 0 0 0 0 0 0 1 1 1 0 0 0 0 0 0 0 0 0 0 0 0 0 0 0 0 0 0 0 0
1 1 1 1 1 0 0 0 0 0 0 0 0 0 0 0 1 1 1 1 1 1 1 1 1 1 1 0 0 1 1 1 0 0 0 0 0 0 0 0 0 0 0
1 1 1 1 1 1 1 1 0 0 0 0 1 1 1 1 1 1 1 1 1 1 1 1 1 1 1 1 1 1 1 1 1 0 0 0 0 0 0 0 0 0 0
1 1 1 1 1 1 1 1 1 1 1 1 1 1 1 1 1 1 1 1 1 1 1 1 1 1 1 1 1 1 1 1 1 1 0 0 0 0 0 0 0 0 0
2 2 2 1 1 1 1 1 1 1 1 1 1 1 1 1 1 1 1 1 1 1 1 1 1 1 1 1 1 1 1 1 1 1 1 0 0 0 0 0 0 0 0
2 2 2 2 1 1 1 1 1 1 1 0 0 0 0 0 1 1 1 1 0 0 1 1 1 1 1 1 1 1 1 1 1 1 1 1 1 0 0 0 0 0 0
2 2 2 1 1 1 1 1 1 1 0 0 0 0 0 0 0 0 0 1 0 1 1 1 1 1 1 1 1 1 1 1 1 1 1 1 1 1 0 0 0 0 0
2 1 1 1 1 1 1 1 1 0 0 0 0 0 0 0 0 0 0 1 1 1 1 1 1 1 1 1 1 1 1 1 1 1 1 1 0 0 0 0 0 0 0
1 1 1 1 1 1 1 0 0 0 0 0 0 0 0 1 1 0 0 1 1 1 1 1 1 1 1 1 1 1 0 0 0 0 0 0 0 0 0 0 0 0 0
1 1 0 0 0 0 0 0 0 0 0 0 0 0 0 1 1 1 0 0 1 1 1 1 1 1 1 1 1 0 0 0 0 0 0 0 0 0 0 0 0 0 0
1 0 0 0 0 0 0 0 0 0 0 0 0 0 0 0 0 0 0 0 0 0 0 1 1 1 0 1 0 0 0 0 0 0 0 0 0 0 0 0 0 0 0
1 0 0 0 0 0 0 0 0 0 0 0 0 0 0 0 0 0 0 0 0 0 0 0 0 0 0 0 0 0 0 0 0 0 0 0 0 0 0 0 0 0 0
0 0 0 0 0 0 0 0 0 0 0 0 0 0 0 0 0 0 0 0 0 0 0 0 0 0 0 0 0 0 0 0 0 0 0 0 0 0 0 0 0 0 0
0 0 0 0 0 0 0 0 0 0 0 0 0 0 0 0 0 0 0 0 0 0 0 0 0 0 0 0 0 0 0 0 0 0 0 0 0 0 0 0 0 0 0
0 0 0 0 0 0 0 0 0 0 0 0 0 0 0 0 0 0 0 0 0 0 0 0 0 0 0 0 0 0 0 0 0 0 0 0 0 0 0 0 0 0 0
0 0 0 0 0 0 0 0 0 0 0 0 0 0 0 0 0 0 0 0 0 0 0 0 0 0 0 0 0 0 0 0 0 0 0 0 0 0 0 0 0 0 0
0 0 0 0 0 0 0 0 0 0 0 0 0 0 0 0 0 0 0 0 0 0 0 0 0 0 0 0 0 0 0 0 0 0 0 0 0 0 0 0 0 0 0
0 0 0 0 0 0 0 0 0 0 0 0 0 0 0 0 0 0 0 0 0 0 0 0 0 0 0 0 0 0 0 0 0 0 0 0 0 0 0 0 0 0 0
0 0 0 0 0 0 0 0 0 0 0 0 0 0 0 0 0 0 0 0 0 0 0 0 0 0 0 0 0 0 0 0 0 0 0 0 0 0 0 0 0 0 0
0 0 0 0 0 0 0 0 0 0 0 0 0 0 0 0 0 0 0 0 0 0 0 0 0 0 0 0 0 0 0 0 0 0 0 0 0 0 0 0 0 0 0
0 0 0 0 0 0 0 0 0 0 0 0 0 0 0 0 0 0 0 0 0 0 0 0 0 0 0 0 0 0 0 0 0 0 0 0 0 0 0 0 0 0 0
0 0 0 0 0 0 0 0 0 0 0 0 0 0 0 0 0 0 0 0 0 0 0 0 0 0 0 0 0 0 0 0 0 0 0 0 0 0 0 0 0 0 0
0 0 0 0 0 0 0 0 0 0 0 0 0 0 0 0 0 0 0 0 0 0 0 0 0 0 0 0 0 0 0 0 0 0 0 0 0 0 0 0 0 0 0
0 0 0 0 0 0 0 0 0 0 0 0 0 0 0 0 0 0 0 0 0 0 0 0 0 0 0 0 0 0 0 0 0 0 0 0 0 0 0 0 0 0 0
0 0 0 0 0 0 0 0 0 0 0 0 0 0 0 0 0 0 0 0 0 0 0 0 0 0 0 0 0 0 0 0 0 0 0 0 0 0 0 0 0 0 0
Wind_Speed
7 6 5 5 7 6 6 6 7 7 8 9 8 9 9 9 10 9 5 9 12 13 13 13 12 13 13 12 12 11 12 12 12 13 14 15 16 15 15 16 17 17 17
6 6 6 6 7 7 6 6 8 8 8 7 9 9 10 11 10 10 10 8 13 14 14 14 13 13 13 13 12 11 12 12 12 12 13 14 14 14 15 15 16 17 18
8 7 8 7 7 7 7 7 9 8 8 8 10 10 10 10 10 10 11 9 9 13 16 15 14 14 14 14 13 13 13 13 12 12 13 13 13 13 13 14 15 17 18
10 8 8 8 7 7 7 7 8 8 8 8 9 9 9 9 11 11 11 10 9 9 11 17 16 15 15 15 15 15 14 14 14 14 14 14 14 13 13 14 14 16 18
9 8 7 7 8 7 7 8 7 7 8 9 10 10 11 11 11 12 12 12 11 11 10 10 16 15 16 16 16 15 15 15 15 15 15 15 15 14 14 14 14 15 18
7 6 7 8 8 7 6 7 8 8 8 9 11 11 11 12 12 12 13 13 12 13 13 12 10 12 17 16 15 16 16 16 16 16 16 16 15 15 14 14 14 15 18
4 3 6 6 6 6 7 8 8 9 9 8 10 11 11 13 13 11 11 12 12 12 11 11 10 9 9 17 16 15 16 17 16 17 17 17 16 16 15 15 15 15 17
4 4 5 5 6 6 7 7 7 7 7 6 8 10 9 9 8 9 9 9 10 9 9 11 10 9 8 7 10 16 16 16 17 17 17 17 16 16 16 17 16 16 17
5 5 5 5 5 6 6 6 6 8 7 7 6 7 8 8 8 6 6 7 6 6 7 6 7 7 8 7 7 10 13 13 15 17 16 16 16 16 16 16 17 17 17
6 5 6 6 6 5 5 6 6 5 7 7 6 6 8 8 7 7 6 5 5 6 5 4 4 5 6 6 5 6 9 11 13 15 16 15 15 14 14 15 17 18 18
6 6 6 5 5 5 5 5 4 5 5 6 6 6 7 7 8 7 8 7 6 5 4 5 4 3 3 4 4 6 7 10 11 12 14 14 14 13 13 14 17 18 19
5 6 5 5 5 4 5 5 5 5 4 5 5 5 5 5 5 5 7 7 6 5 5 4 4 3 3 3 5 4 6 8 9 11 11 12 13 13 13 15 17 19 21
5 6 5 5 5 5 5 4 5 4 3 4 4 3 3 3 4 5 5 5 6 4 4 3 2 2 2 2 2 3 5 6 7 8 8 10 11 13 14 16 17 19 21
5 5 5 5 5 5 5 4 4 3 2 2 2 3 3 3 3 4 4 5 5 4 2 3 2 1 2 3 2 4 5 4 5 5 6 8 10 11 13 15 16 17 18
4 5 5 5 5 5 4 4 3 2 2 2 1 2 3 3 3 3 3 4 5 6 4 2 3 3 5 4 3 5 5 3 4 4 5 7 9 11 12 13 15 16 16
4 4 5 4 4 4 4 4 3 2 1 1 2 3 4 4 3 3 3 3 3 5 5 4 4 5 6 5 3 5 4 2 5 4 5 6 8 10 11 12 13 14 15
3 4 4 4 4 3 3 2 1 2 2 4 4 5 5 6 5 4 4 4 3 4 6 6 4 5 5 5 4 3 3 4 3 3 4 6 7 9 9 10 10 12 14
2 3 4 4 4 3 3 3 4 5 6 6 6 6 6 5 6 6 5 6 4 4 5 7 5 4 4 5 5 4 3 3 2 2 3 5 6 7 7 6 7 9 13
3 3 4 5 5 5 6 6 7 7 7 7 7 7 7 7 7 7 7 7 6 5 4 5 5 4 4 5 6 4 3 3 3 3 3 3 4 5 5 3 4 8 12
4 4 5 6 6 7 8 8 8 8 8 8 8 8 8 8 8 8 6 7 7 6 5 5 5 6 6 7 6 6 5 3 3 2 0 1 2 3 3 1 3 7 11
6 6 7 7 8 7 7 8 9 10 9 9 8 8 9 8 8 8 8 8 8 8 7 7 7 8 8 8 8 7 7 5 2 1 2 1 1 1 1 2 4 7 10
6 7 7 8 8 8 8 7 7 10 9 9 8 7 8 8 5 5 6 8 9 9 9 8 8 9 9 9 8 7 7 6 4 3 3 1 1 1 0 1 5 7 9
7 8 8 9 10 9 8 8 6 8 8 8 7 7 7 9 9 7 4 4 7 6 6 8 10 10 10 10 9 9 7 6 5 5 3 2 2 1 1 3 8 8 8
7 7 8 10 10 9 6 6 4 7 8 7 7 7 7 8 10 10 6 6 7 8 8 8 8 8 9 10 9 7 5 2 3 4 5 3 3 2 2 2 7 8 8
7 8 8 9 10 8 4 2 1 5 5 6 6 7 8 8 11 12 6 6 6 5 4 3 2 4 4 6 10 9 8 6 5 5 4 3 3 2 2 2 3 5 6
7 8 8 7 8 7 4 1 2 2 4 3 4 5 10 9 10 12 8 7 7 7 7 4 1 2 4 6 8 10 10 9 7 5 6 3 2 2 2 1 1 1 3
Wind_Direction
233 236 243 251 258 256 248 249 266 278 280 272 270 270 270 270 265 261 255 215 223 235 245 249 245 244 244 243 238 233 231 231 228 225 225 227 230 232 231 228 224 217 213
239 242 239 242 253 259 267 278 277 277 273 279 278 276 273 271 266 265 262 240 217 224 236 244 247 243 239 238 235 231 229 230 227 224 225 227 230 231 232 230 226 218 211
235 241 250 248 252 260 262 262 271 274 271 270 271 272 268 265 266 265 266 267 254 221 218 229 237 240 236 233 232 228 225 225 225 225 225 227 229 229 230 230 228 219 210
244 247 255 256 257 258 261 263 264 269 271 274 277 279 277 271 263 261 259 255 257 259 225 214 224 231 233 232 230 228 224 222 222 224 225 226 228 228 228 228 227 220 211
252 252 259 267 267 261 260 265 266 270 274 276 276 271 270 270 269 263 261 261 255 252 256 217 207 220 228 230 228 226 224 222 221 222 225 226 227 227 227 227 225 221 212
259 260 261 266 271 267 265 263 270 267 271 275 279 281 277 274 269 266 263 259 254 248 245 248 225 216 217 223 223 224 225 223 221 223 225 226 227 226 225 225 224 222 214
254 258 269 269 269 268 271 273 272 272 269 275 279 278 272 262 258 259 260 263 260 254 249 245 243 240 210 209 218 223 226 226 224 225 226 227 228 227 225 224 223 221 216
239 240 252 261 268 275 269 269 272 280 283 278 282 291 286 275 253 250 252 254 261 261 252 240 236 235 243 223 204 213 226 232 232 231 230 230 229 229 227 225 222 218 215
210 212 221 241 252 258 262 269 271 268 279 281 271 278 292 299 321 277 264 263 263 265 259 253 235 232 232 238 227 208 220 233 241 242 240 236 233 231 229 226 222 218 213
206 203 210 222 233 244 254 258 265 275 272 276 274 259 265 286 289 293 276 266 258 251 253 252 243 229 232 237 234 239 226 233 242 249 253 250 243 236 232 229 226 222 214
199 201 200 214 224 236 249 262 266 266 268 274 282 281 278 270 259 267 284 288 279 263 251 242 247 250 243 245 248 246 237 237 239 248 256 260 258 250 240 236 235 232 222
185 196 193 205 222 233 234 243 253 252 271 286 290 291 290 289 291 278 281 290 287 280 273 257 245 242 241 254 258 268 256 248 242 243 248 255 261 260 254 248 244 239 231
184 187 190 199 212 222 235 247 245 264 267 282 292 306 309 310 311 303 294 298 295 296 282 264 260 264 259 266 275 291 263 250 242 240 242 249 258 263 260 254 250 243 233
177 177 187 199 211 221 232 239 249 241 258 282 313 332 319 344 338 335 328 319 312 306 298 324 325 339 331 307 319 276 265 232 236 239 248 256 261 264 262 257 249 242 232
159 171 184 197 207 215 227 238 237 241 249 280 325 353 342 354 344 346 338 333 325 322 330 357 339 349 329 312 308 286 273 206 226 243 256 266 270 270 266 259 247 235 225
148 167 180 188 196 202 212 231 212 170 200 49 24 24 5 359 358 349 344 335 319 312 311 324 316 320 324 317 312 296 287 198 226 240 264 277 281 281 277 265 246 229 216
165 176 175 181 183 182 185 198 165 138 100 72 56 53 43 25 9 2 359 349 343 321 305 314 322 323 320 325 326 306 287 267 228 216 273 290 292 292 286 271 245 221 203
170 165 162 159 156 148 145 132 105 90 84 76 66 59 46 42 28 18 3 7 2 344 320 321 325 333 332 335 328 303 275 262 260 193 269 296 307 307 296 277 238 206 188
141 143 141 139 134 125 113 101 94 88 82 76 70 62 50 39 29 26 13 10 1 360 348 333 346 354 346 348 337 323 284 265 255 210 227 275 321 327 318 285 216 184 171
140 135 131 127 122 114 108 103 98 95 90 82 70 59 46 38 25 11 16 15 6 1 14 16 21 18 11 1 355 345 330 298 268 248 255 359 346 343 3 17 159 160 157
145 138 130 123 116 108 99 104 107 101 96 89 79 70 60 49 38 18 16 12 10 8 19 26 30 27 20 9 3 347 335 324 309 308 277 271 296 325 48 100 120 136 141
135 130 122 115 105 90 69 65 95 101 95 87 76 68 73 54 62 79 55 40 24 21 18 17 31 26 18 10 357 356 353 352 352 349 309 287 317 319 9 97 120 130 138
137 129 122 114 103 95 85 75 71 99 91 77 65 48 42 43 19 32 90 131 77 50 11 9 32 18 14 8 352 3 18 16 6 348 335 353 7 350 15 97 131 136 136
141 133 126 119 115 112 105 100 96 100 90 78 62 49 42 40 23 356 20 50 55 50 33 31 30 23 20 359 347 350 2 41 53 26 11 17 11 9 14 84 141 150 153
142 138 132 132 128 129 134 131 215 113 101 85 66 49 29 39 16 349 7 30 36 47 113 107 344 316 308 343 352 356 0 6 32 42 25 25 4 356 20 51 120 169 179
143 139 131 134 135 132 135 127 295 138 111 108 102 97 66 33 13 -0 12 25 24 12 4 25 18 342 0 24 17 11 1 1 10 28 25 10 16 19 26 42 76 151 189